This is the latest recevied weather packets stored in our database for station/object HB9FHL-13. If no packets are shown the sender has not sent any weather packets the latest 10 day(s).
| Time | Temp. | Humidity | Pressure | Rain* | Wind** | Luminosity | Snow |
|---|---|---|---|---|---|---|---|
| 1788503708 | 21.67° C | - | 1024.5 hPa | 0 mm | - | - | - |
| 1788503703 | 21.67° C | - | 1024.5 hPa | 0 mm | - | - | - |
| 1788503455 | 22.22° C | - | 1023.5 hPa | 0 mm | - | - | - |
| 1788503455 | 22.22° C | - | 1023.5 hPa | 0 mm | - | - | - |
| 1788503403 | 22.22° C | - | 1023.5 hPa | 0 mm | - | - | - |
| 1788503102 | 21.67° C | - | 1022.5 hPa | 0 mm | - | - | - |
| 1788502802 | 21.67° C | - | 1024.7 hPa | 0 mm | - | - | - |
| 1788502501 | 22.22° C | - | 1021.5 hPa | 0 mm | - | - | - |
| 1788502282 | 21.67° C | - | 1020.7 hPa | 0 mm | - | - | - |
| 1788502201 | 21.67° C | - | 1020.7 hPa | 0 mm | - | - | - |
| 1788502021 | 21.67° C | - | 1023.8 hPa | 0 mm | - | - | - |
| 1788501900 | 21.67° C | - | 1023.8 hPa | 0 mm | - | - | - |
| 1788501682 | 21.11° C | - | 1017.7 hPa | 0 mm | - | - | - |
| 1788501600 | 21.11° C | - | 1017.7 hPa | 0 mm | - | - | - |
| 1788501299 | 20.56° C | - | 1022.5 hPa | 0 mm | - | - | - |
| 1788501065 | 21.67° C | - | 1022.3 hPa | 0 mm | - | - | - |
| 1788500999 | 21.67° C | - | 1022.3 hPa | 0 mm | - | - | - |
| 1788500698 | 21.11° C | - | 1022.2 hPa | 0 mm | - | - | - |
| 1788500517 | 21.67° C | - | 1020.1 hPa | 0 mm | - | - | - |
| 1788500398 | 21.67° C | - | 1020.1 hPa | 0 mm | - | - | - |
| 1788500098 | 21.67° C | - | 1024.7 hPa | 0 mm | - | - | - |
| 1788499796 | 21.11° C | - | 1021 hPa | 0 mm | - | - | - |
| 1788499496 | 21.11° C | - | 1025.5 hPa | 0 mm | - | - | - |
| 1788498895 | 21.11° C | - | 1023.8 hPa | 0 mm | - | - | - |
| 1788498352 | 21.67° C | - | 1022 hPa | 0 mm | - | - | - |
* Rain since midnight (hover to see other rain measurements)
** Current wind speed in m/s (hover to see current wind gust speed)